Alpha, California Weather observations

Data are for observation ending at time listed.
 Day   Time    Ave.   Ave.  Ave.  Vector   Max.   Stn.    Total    Solar   Ave.   Snow 
  of    of     Air    Rel.  Wind   Wind    Wind   Baro.  Precip.   Rad.    Soil   Depth
Year   Day     Temp.  Hum.  Speed  Dir.    Gust   Pres.                    Temp.       
2026   (PST)    F      %     mph   deg.    mph     mb.     in.     W/m2     F      in. 
---------------------------------------------------------------------------------------  
 127    3:50   50.1    50    2.1   327      3.4   789.8    0.00       0    999.0  999.0
 127    4:00   50.0    50    1.8   331      2.3   789.8    0.00       0    999.0  999.0
 127    4:10   49.8    51    1.4   328      2.5   789.8    0.00       0    999.0  999.0
 127    4:20   49.4    52    1.8   332      3.5   789.8    0.00       0    999.0  999.0
 127    4:30   49.1    53    1.9   331      2.6   789.8    0.00       0    999.0  999.0
 127    4:40   48.9    54    1.7   332      2.5   789.8    0.00       0    999.0  999.0
 127    4:50   48.5    54    1.6   336      2.3   789.8    0.00       0    999.0  999.0
 127    5:00   48.5    53    1.6   338      2.1   789.8    0.00       1    999.0  999.0
 127    5:10   48.6    51    1.4   337      1.7   789.9    0.00       3    999.0  999.0
 127    5:20   48.8    50    1.4   342      1.9   789.9    0.00       8    999.0  999.0
 127    5:30   49.8    46    1.3   349      1.9   789.9    0.00      20    999.0  999.0
 127    5:40   51.0    43    1.0   350      1.5   790.0    0.00      14    999.0  999.0
 127    5:50   50.7    43    1.1   348      2.3   790.0    0.00      10    999.0  999.0
 127    6:00   50.6    43    1.0   348      1.6   790.1    0.00      15    999.0  999.0
 127    6:10   50.9    42    0.7   349      1.3   790.2    0.00      24    999.0  999.0
 127    6:20   51.5    41    1.0   343      1.8   790.2    0.00      21    999.0  999.0
 127    6:30   52.4    39    0.9   342      1.8   790.3    0.00      37    999.0  999.0
 127    6:40   52.3    39    0.9   343      2.4   790.4    0.00      47    999.0  999.0
 127    6:50   52.4    39    1.1   342      2.9   790.4    0.00      88    999.0  999.0
 127    7:00   53.3    39    1.5   342      4.1   790.5    0.00     168    999.0  999.0
 127    7:10   54.0    39    1.6   338      4.2   790.4    0.00     187    999.0  999.0
 127    7:20   54.4    39    1.7   332      4.2   790.5    0.00     206    999.0  999.0
 127    7:30   54.1    40    2.1   327      5.3   790.6    0.00     225    999.0  999.0
 127    7:40   53.9    41    2.4   330      5.3   790.6    0.00     244    999.0  999.0
 127    7:50   54.2    41    2.0   328      6.9   790.7    0.00     263    999.0  999.0
 127    8:00   54.6    40    2.0   330      5.8   790.7    0.00     280    999.0  999.0
 127    8:10   54.6    37    2.8   330      9.6   790.7    0.00     298    999.0  999.0
 127    8:20   54.8    33    2.6   333      5.8   790.7    0.00     316    999.0  999.0
 127    8:30   55.0    30    2.7   330      6.1   790.7    0.00     334    999.0  999.0
 127    8:40   55.4    30    2.5   324      4.8   790.8    0.00     350    999.0  999.0
 127    8:50   55.5    31    2.8   318      6.6   790.8    0.00     365    999.0  999.0
 127    9:00   55.5    32    2.1   327      5.5   790.8    0.00     380    999.0  999.0
 127    9:10   56.2    34    1.9   312      4.6   790.8    0.00     392    999.0  999.0
 127    9:20   56.2    33    3.1   299      7.4   790.7    0.00     406    999.0  999.0
 127    9:30   56.2    33    2.7   300      5.7   790.7    0.00     420    999.0  999.0
 127    9:40   56.8    31    3.0   313      8.0   790.8    0.00     433    999.0  999.0
 127    9:50   56.9    31    2.7   323      7.4   790.9    0.00     444    999.0  999.0
 127   10:00   57.1    29    3.0   302      9.1   790.9    0.00     455    999.0  999.0
 127   10:10   57.2    32    2.9   315      8.3   790.9    0.00     464    999.0  999.0
 127   10:20   57.3    34    2.1   328      6.5   790.9    0.00     471    999.0  999.0
 127   10:30   57.5    35    2.3   325      6.1   790.9    0.00     478    999.0  999.0
 127   10:40   57.8    38    2.8   296     11.5   791.0    0.00     486    999.0  999.0
 127   10:50   57.8    43    3.3   270      6.3   790.9    0.00     493    999.0  999.0
 127   11:00   58.3    39    2.8   280      6.6   790.9    0.00     497    999.0  999.0
 127   11:10   59.0    40    3.3   269     11.2   790.8    0.00     502    999.0  999.0
 127   11:20   59.3    38    2.7   272      7.7   790.8    0.00     506    999.0  999.0
 127   11:30   59.3    36    3.2   284      9.1   790.8    0.00     511    999.0  999.0
 127   11:40   58.8    39    2.8   279      6.7   790.8    0.00     511    999.0  999.0
 127   11:50   59.2    40    3.3   282      8.1   790.8    0.00     513    999.0  999.0
 127   12:00   58.8    39    4.8   276     10.3   790.7    0.00     512    999.0  999.0
 127   12:10   58.3    39    5.2   269     10.5   790.7    0.00     512    999.0  999.0
 127   12:20   58.6    38    4.5   270     11.0   790.7    0.00     511    999.0  999.0
 127   12:30   58.7    37    4.7   250     11.6   790.7    0.00     510    999.0  999.0
 127   12:40   58.4    34    5.9   240     11.6   790.7    0.00     506    999.0  999.0
 127   12:50   59.7    32    4.9   245      9.2   790.7    0.00     503    999.0  999.0
 127   13:00   58.3    32    5.8   243     14.5   790.7    0.00     497    999.0  999.0
 127   13:10   58.4    33    6.1   239     13.4   790.7    0.00     491    999.0  999.0
 127   13:20   58.3    34    5.4   253     10.2   790.6    0.00     485    999.0  999.0
 127   13:30   58.5    34    5.7   232     16.4   790.6    0.00     476    999.0  999.0
 127   13:40   58.7    34    5.0   251     10.7   790.5    0.00     467    999.0  999.0
 127   13:50   58.6    34    5.1   246     11.0   790.5    0.00     458    999.0  999.0
 127   14:00   59.0    32    5.6   244     10.8   790.4    0.00     449    999.0  999.0
 127   14:10   58.4    35    6.6   238     14.2   790.4    0.00     438    999.0  999.0
 127   14:20   58.2    36    5.9   250     13.6   790.3    0.00     425    999.0  999.0
 127   14:30   57.9    38    5.9   244     10.9   790.3    0.00     412    999.0  999.0
 127   14:40   57.8    40    5.9   243     11.6   790.2    0.00     399    999.0  999.0
 127   14:50   58.7    38    4.6   257      9.3   790.1    0.00     384    999.0  999.0
 127   15:00   58.3    37    4.1   272      9.6   790.1    0.00     362    999.0  999.0
 127   15:10   58.7    38    4.3   266     11.3   790.0    0.00     267    999.0  999.0
 127   15:20   57.2    36    5.0   275     11.3   789.9    0.00     290    999.0  999.0
 127   15:30   57.4    39    5.6   252     12.1   789.9    0.00     214    999.0  999.0
 127   15:40   57.0    36    5.8   274     12.1   789.9    0.00     199    999.0  999.0
 127   15:50   57.2    38    5.1   258     10.1   789.9    0.00     247    999.0  999.0
 127   16:00   57.4    37    4.5   267      9.0   789.8    0.00      39    999.0  999.0
 127   16:10   57.8    37    3.8   274      8.6   789.8    0.00      38    999.0  999.0
 127   16:20   57.5    38    4.8   259      9.8   789.8    0.00     131    999.0  999.0
 127   16:30   57.8    38    4.3   269      8.8   789.8    0.00     220    999.0  999.0
 127   16:40   56.9    37    3.8   275     10.4   789.8    0.00     202    999.0  999.0
 127   16:50   56.6    40    4.2   283      8.5   789.8    0.00     182    999.0  999.0
 127   17:00   56.7    42    4.2   273      8.8   789.7    0.00     164    999.0  999.0
 127   17:10   56.4    41    4.6   268      9.6   789.7    0.00     144    999.0  999.0
 127   17:20   56.2    41    3.4   272      9.6   789.7    0.00      65    999.0  999.0
 127   17:30   56.2    40    4.2   285      8.8   789.7    0.00      97    999.0  999.0
 127   17:40   56.0    40    3.3   298      7.5   789.7    0.00      93    999.0  999.0
 127   17:50   55.8    40    3.5   283      7.8   789.7    0.00      77    999.0  999.0
 127   18:00   54.8    42    3.3   284      6.9   789.6    0.00      62    999.0  999.0
 127   18:10   54.4    45    3.2   291      7.3   789.6    0.00      47    999.0  999.0
 127   18:20   53.8    48    1.9   298      6.7   789.6    0.00      26    999.0  999.0
 127   18:30   52.7    51    2.3   301      5.3   789.7    0.00      11    999.0  999.0
 127   18:40   51.9    54    2.7   299      6.6   789.7    0.00      10    999.0  999.0
 127   18:50   51.0    58    1.5   315      2.9   789.7    0.00       5    999.0  999.0
 127   19:00   50.4    61    1.7   318      4.6   789.8    0.00       3    999.0  999.0
 127   19:10   49.6    65    1.9   326      4.7   789.8    0.00       1    999.0  999.0
 127   19:20   48.9    66    1.7   328      3.2   789.8    0.00       0    999.0  999.0
 127   19:30   48.4    68    2.5   328      4.7   789.9    0.00       0    999.0  999.0
 127   19:40   48.0    68    2.0   328      3.1   789.9    0.00       0    999.0  999.0
 127   19:50   47.6    69    1.2   326      2.2   790.0    0.00       0    999.0  999.0
 127   20:00   47.3    69    0.9   337      1.7   790.2    0.00       0    999.0  999.0
 127   20:10   47.3    68    0.5   355      1.8   790.2    0.00       0    999.0  999.0
 127   20:20   47.8    47    1.1   285      2.6   790.3    0.00       0    999.0  999.0
 127   20:30   48.1    48    1.0   286      2.2   790.4    0.00       0    999.0  999.0
 127   20:40   48.5    51    1.9   257      3.2   790.4    0.00       0    999.0  999.0
 127   20:50   48.6    49    1.7   225      2.6   790.4    0.00       0    999.0  999.0
 127   21:00   48.4    52    2.4   206      4.2   790.4    0.00       0    999.0  999.0
 127   21:10   48.0    63    2.4   173      3.6   790.4    0.00       0    999.0  999.0
 127   21:20   47.9    67    2.1   168      3.1   790.3    0.00       0    999.0  999.0
 127   21:30   47.8    67    2.8   149      4.5   790.3    0.00       0    999.0  999.0
 127   21:40   47.8    66    3.5   138      4.6   790.3    0.00       0    999.0  999.0
 127   21:50   47.8    64    3.0   125      4.5   790.3    0.00       0    999.0  999.0
 127   22:00   47.7    66    3.4   123      4.8   790.3    0.00       0    999.0  999.0
 127   22:10   47.6    66    4.0   121      4.9   790.2    0.00       0    999.0  999.0
 127   22:20   47.6    65    4.0   114      5.4   790.2    0.00       0    999.0  999.0
 127   22:30   47.9    60    3.5   114      5.3   790.1    0.00       0    999.0  999.0
 127   22:40   48.3    54    3.1   128      4.6   790.1    0.00       0    999.0  999.0
 127   22:50   48.5    50    3.3   132      5.8   790.0    0.00       0    999.0  999.0
 127   23:00   48.7    47    3.9   142      6.1   790.0    0.00       0    999.0  999.0
 127   23:10   48.7    44    2.7   149      3.9   790.0    0.00       0    999.0  999.0
 127   23:20   48.8    40    3.0   148      4.5   790.0    0.00       0    999.0  999.0
 127   23:30   49.1    36    3.2   147      5.9   790.0    0.00       0    999.0  999.0
 127   23:40   49.1    34    3.0   146      4.7   790.0    0.00       0    999.0  999.0
 127   23:50   49.4    32    3.2   142      4.8   789.9    0.00       0    999.0  999.0
 128    0:00   49.3    31    2.9   144      4.8   789.8    0.00       0    999.0  999.0
 128    0:10   49.5    29    3.3   134      4.9   789.8    0.00       0    999.0  999.0
 128    0:20   49.5    28    2.4   130      3.4   789.7    0.00       0    999.0  999.0
 128    0:30   49.6    26    2.4   142      4.2   789.6    0.00       0    999.0  999.0
 128    0:40   49.6    23    2.7   171      4.7   789.6    0.00       0    999.0  999.0
 128    0:50   49.5    23    3.5   187      5.0   789.5    0.00       0    999.0  999.0
 128    1:00   49.7    22    3.8   200      5.8   789.5    0.00       0    999.0  999.0
 128    1:10   49.8    21    3.0   198      4.7   789.5    0.00       0    999.0  999.0
 128    1:20   49.6    21    2.4   200      4.0   789.5    0.00       0    999.0  999.0
 128    1:30   49.3    20    2.9   212      4.3   789.5    0.00       0    999.0  999.0
 128    1:40   49.3    20    2.7   218      4.5   789.5    0.00       0    999.0  999.0
 128    1:50   49.3    20    2.3   222      3.9   789.4    0.00       0    999.0  999.0
 128    2:00   49.1    20    3.0   228      5.8   789.5    0.00       0    999.0  999.0
 128    2:10   49.1    20    2.4   226      5.3   789.4    0.00       0    999.0  999.0
 128    2:20   48.8    20    2.4   235      4.7   789.5    0.00       0    999.0  999.0
 128    2:30   48.9    20    2.9   239      6.1   789.4    0.00       0    999.0  999.0
 128    2:40   48.8    20    2.5   236      5.0   789.4    0.00       0    999.0  999.0
 128    2:50   48.7    20    2.6   234      5.6   789.4    0.00       0    999.0  999.0
 128    3:00   48.4    20    2.1   221      4.4   789.3    0.00       0    999.0  999.0
 128    3:10   47.9    21    2.8   212      6.4   789.3    0.00       0    999.0  999.0
 128    3:20   47.7    21    3.3   202      5.0   789.3    0.00       0    999.0  999.0
 128    3:30   47.6    22    4.0   203      6.6   789.3    0.00       0    999.0  999.0
 128    3:40   47.4    22    3.9   199      5.7   789.3    0.00       0    999.0  999.0

Return to Alpha graphs page.


Western Regional Climate Center,wrcc@dri.edu